Hourly Data Report for September 25, 2017

All times are specified in Local Standard Time (LST). Add 1 hour to adjust for Daylight Saving Time where and when it is observed.

CLYDE RIVER A
NUNAVUT

70°29'09.000" N
68°31'01.000" W
26.50 m
2400804
71090
YCY

Related Data

No related data is available for this station

Download Data

Hourly Data (September 2017)
Hourly Data Report for September 25, 2017
Temp Definition
°C
Dew Point Temp Definition
°C
Rel Hum Definition
%
Wind Dir Definition
10's deg

Wind Spd Definition
km/h
Visibility Definition
km
Stn Press Definition
kPa
Hmdx Definition


Wind Chill Definition


Weather Definition


TIME
00:00 Legend Double Dagger -1.3 -3.4 85 32 39 16.1 100.12   -9 Snow
01:00 Legend Double Dagger -1.1 -3.8 82 33 45 16.1 100.09   -9 LegendNANA
02:00 Legend Double Dagger -1.0 -3.6 83 33 35 16.1 100.12   -8 LegendNANA
03:00 Legend Double Dagger -1.3 -3.9 82 33 32 16.1 100.21   -8 LegendNANA
04:00 Legend Double Dagger -1.4 -3.4 86 33 30 12.9 100.22   -8 Snow
05:00 Legend Double Dagger -1.4 -3.6 85 32 18 16.1 100.25   -7 LegendNANA
06:00 Legend Double Dagger -1.5 -3.7 85 32 18 16.1 100.30   -7 LegendNANA
07:00 Legend Double Dagger -1.3 -4.0 82 30 18 16.1 100.32   -7 LegendNANA
08:00 Legend Double Dagger -1.1 -4.1 80 30 13 16.1 100.38   -5 LegendNANA
09:00 Legend Double Dagger -1.1 -4.0 81 28 17 16.1 100.41   -6 LegendNANA
10:00 Legend Double Dagger -0.9 -3.5 83 27 15 16.1 100.45   -6 LegendNANA
11:00 Legend Double Dagger -0.7 -3.9 79 26 15 16.1 100.46   -5 LegendNANA
12:00 Legend Double Dagger -0.7 -3.2 83 31 11 16.1 100.50   -4 LegendNANA
13:00 Legend Double Dagger -0.6 -3.6 80 29 11 16.1 100.54   -4 LegendNANA
14:00 Legend Double Dagger -0.6 -4.6 74 33 11 16.1 100.58   -4 LegendNANA
15:00 Legend Double Dagger -0.5 -4.2 76 29 9 16.1 100.60   -4 LegendNANA
16:00 Legend Double Dagger -0.8 -3.3 83 30 5 16.1 100.67   -2 LegendNANA
17:00 Legend Double Dagger -1.0 -3.4 84 36 8 16.1 100.70   -4 LegendNANA
18:00 Legend Double Dagger -1.1 -3.5 84 3 13 16.1 100.75   -5 LegendNANA
19:00 Legend Double Dagger -1.2 -3.6 84 4 8 16.1 100.79   -4 LegendNANA
20:00 Legend Double Dagger -1.5 -3.2 88   0 16.1 100.81     LegendNANA
21:00 Legend Double Dagger -2.0 -3.4 90 LegendMM 4 16.1 100.79   -3 LegendNANA
22:00 Legend Double Dagger -2.0 -3.7 88 26 5 16.1 100.80   -4 LegendNANA
23:00 Legend Double Dagger -1.6 -4.4 81 28 4 16.1 100.81   -3 LegendNANA

Notes on Data Quality.

Legend

  • E = Estimated
  • M = Missing
  • NA = Not Available
  • ‡ = Partner data that is not subject to review by the National Climate Archives
Date modified: